Location: Praha
(50.0830°N, 14.4670°E)
Time: 15:34:52
(UTC+01:00)

ISS - Pass Details

Date: 03 December 2018
Orbit: 401 x 408 km, 51.6° (Epoch: 12 December)

Event Time Altitude Azimuth Distance (km) Brightness Sun altitude
Rises 18:43:17 0° 281° (W) 2,318 1.2 -24.9°
Reaches altitude 10° 18:45:22 10° 284° (WNW) 1,457 -0.1 -25.2°
Enters shadow 18:46:57 26° 289° (WNW) 834 -1.7 -25.5°
